NOAA 16 DEB, 42335

Orbit data source: Space-Track

NOAA 16 DEB, 42335 is space debris in SSO originally from a launch on Thu, 21 Sep 2000 UTC launched from the Air Force Western Test Range (AFWTR). Debris objects in space refer to the collection of defunct objects orbiting the Earth. Examples of debris include non-operational satellites, rocket bodies, and fragments generated from explosions, collisions, or faulty payload assembly.

Loading next visibility...
Identifier
42335, 2000-055QB
Orbit
SSO
Country
Flag of USUS
Related business
Manufacturer
Unknown
Mission
Spacecraft
Bus & Motor
Unknown
Mass
Unknown
Launch date (UTC)
2000-09-21 (25 years ago)
Launch vehicle
Unknown
Launch site
Air Force Western Test Range (AFWTR)
Object type
Payload
Rocket body
Debris
Shape & HBR
Unknown shape, 0.1 m
Radar Cross Section
Small (<0.1 m²)

Expand to show TLE details & history
Last TLE update: 2 days ago

TLE from 2 days ago
0 NOAA 16 DEB
1 42335U 00055QB  25286.88540544  .00006082  00000-0  22044-2 0  9998
2 42335  98.5735 342.7333 0025909 198.6164 161.4075 14.33542350497881
Epoch: 2025-10-13T21:14Z
TLE epoch observation values (Epoch: 2025-10-13T21:14:59.030Z)
Latitude
0.00001°
Longitude
1.30557°
Altitude
800.438 km
Speed
7.444 km/s
True Right ascension
22h 50m 55s
True Declination
0° 00' 00"
Sunlit
Object was in full shadow at epoch
Visualization orbit readout
Latitude
Unknown
Longitude
Unknown
Altitude
Unknown
Speed
Unknown
Apparent Right ascension
Unknown
Apparent Declination
Unknown
Sunlit
N/A
Visualization observer readout
Local Sidereal Time
11:17:46
Azimuth
Unknown
Elevation
Unknown
Doppler factor
Unknown
Orbital elements
Apogee altitude
795.587 km
Perigee altitude
758.51 km
Semi-major axis
7,155.186 km
Eccentricity
0.00259
Inclination
98.5735°
RAAN
342.7333°
Arg. of periapsis
198.6164°
True anomaly
161.50187°
Mean anomaly
161.4075°
Eccentric anomaly
161.45471°
Mean motion
3.58601 °/min
Orbital period
100.39 mins
BSTAR
0.0022044
Loading maneuver chart data...
Computing Atmospheric mass density...
Loading historical data...
Loading historical data...
Loading historical data...
Loading historical data...
Loading historical data...
Loading historical data...
Loading historical data...

Documentation

Showing up to 5 results
|